Flag for Germany Weather past 2 weeks in Dresden, Saxony, Germany

Now
41 °F

Partly sunny.


Feels Like: 35 °F
Forecast: 36 / 56 °F
Wind: 9 mph from North

Location: Dresden-Klotzsche

Current Time: Apr 18, 2015 at 10:48:36 AM

Latest Report: Apr 18, 2015 at 10:20 AM


Visibility: N/A

Pressure: 30.24 "Hg

Humidity: 70%

Dew point: 32 °F

Location of DresdenLocation

Historic Weather in Dresden — Graph

°F

Dresden temperature yesterday

Maximum temperature yesterday: 50 °F (at 12:20 PM)
Minimum temperature yesterday: 41 °F (at 5:20 AM)
Average temperature yesterday: 45 °F

Past Weeks' High & Low Weather Summary

 TemperatureHumidityPressure
High70 °F (Apr 15, 3:20 PM)100% (Apr 4, 11:20 PM)30.57 "Hg (Apr 4, 11:20 PM)
Low28 °F (Apr 5, 3:50 AM)28% (Apr 12, 1:50 PM)29.89 "Hg (Apr 15, 6:50 PM)
Average46 °F67%30.19 "Hg
* Reported Apr 3 9:20 AM — Apr 18 9:50 AM, Dresden, Weather by CustomWeather, © 2015

Note: Actual official high and low records may vary slightly from our data, if they occured in-between our weather recording intervals... More about our weather records

Advertising

Dresden weather history for previous 24 hours

 ConditionsComfort  
Time TempWeatherWind HumidityBarometerVisibility
9:50 AM
Sat, Apr 18
41 °FPartly sunny.8 mph76%30.24 "HgN/A
9:20 AM39 °FPartly sunny.7 mph75%30.24 "HgN/A
8:50 AM37 °FPartly sunny.10 mph81%30.21 "HgN/A
8:20 AM37 °FPartly sunny.8 mph81%30.21 "HgN/A
7:50 AM37 °FScattered clouds.8 mph87%30.21 "HgN/A
7:20 AM36 °FPartly sunny.10 mph93%30.18 "HgN/A
6:50 AM37 °FPassing clouds.9 mph93%30.18 "HgN/A
6:20 AM37 °FPassing clouds.7 mph93%30.15 "HgN/A
5:50 AM37 °FPassing clouds.6 mph93%30.15 "HgN/A
5:20 AM37 °FPassing clouds.5 mph93%30.12 "HgN/A
4:50 AM37 °FPassing clouds.7 mph93%30.12 "HgN/A
4:20 AM37 °FPassing clouds.6 mph87%30.12 "HgN/A
3:50 AM37 °FPassing clouds.7 mph87%30.12 "HgN/A
3:20 AM39 °FPassing clouds.6 mph87%30.09 "HgN/A
2:50 AM39 °FPartly cloudy.7 mph87%30.09 "HgN/A
2:20 AM39 °FLight rain. Partly cloudy.6 mph81%30.09 "HgN/A
1:50 AM39 °FClear.7 mph81%30.09 "Hg10 mi
1:20 AM39 °FClear.6 mph75%30.09 "Hg10 mi
12:50 AM37 °FClear.6 mph81%30.07 "Hg10 mi
12:20 AM39 °FClear.7 mph75%30.07 "Hg10 mi
11:50 PM
Fri, Apr 17
41 °FClear.7 mph70%30.07 "Hg10 mi
11:20 PM43 °FClear.7 mph66%30.07 "Hg10 mi
10:50 PM41 °FPassing clouds.5 mph76%30.04 "HgN/A
10:20 PM41 °FClear.5 mph76%30.04 "Hg10 mi
9:50 PM41 °FPassing clouds.5 mph76%30.01 "HgN/A
9:20 PM41 °FClear.5 mph76%30.01 "Hg10 mi
8:50 PM43 °FSunny.5 mph71%30.01 "Hg10 mi
8:20 PM45 °FPassing clouds.6 mph66%30.01 "HgN/A
7:50 PM45 °FPassing clouds.7 mph66%29.98 "HgN/A
7:20 PM46 °FPassing clouds.8 mph62%29.98 "HgN/A
6:50 PM46 °FPassing clouds.10 mph57%29.98 "HgN/A
6:20 PM46 °FSunny.9 mph57%29.95 "Hg10 mi
5:50 PM48 °FSunny.10 mph54%29.95 "Hg10 mi
5:20 PM48 °FSunny.10 mph58%29.95 "Hg10 mi
4:50 PM48 °FSunny.8 mph58%29.95 "Hg10 mi
4:20 PM46 °FPartly sunny.14 mph57%29.95 "HgN/A
3:50 PM50 °FPartly sunny.12 mph50%29.95 "HgN/A
3:20 PM48 °FScattered clouds.13 mph54%29.95 "HgN/A
2:50 PM50 °FScattered clouds.13 mph54%29.95 "HgN/A
2:20 PM50 °FScattered clouds.12 mph58%29.95 "HgN/A
1:50 PM48 °FScattered clouds.12 mph58%29.95 "HgN/A
1:20 PM48 °FScattered clouds.14 mph62%29.95 "HgN/A
12:50 PM50 °FScattered clouds.14 mph62%29.95 "HgN/A
12:20 PM50 °FScattered clouds.12 mph58%29.95 "HgN/A
11:50 AM48 °FScattered clouds.12 mph54%29.95 "HgN/A
11:20 AM46 °FScattered clouds.10 mph66%29.95 "HgN/A
10:50 AM46 °FPartly sunny.9 mph62%29.95 "HgN/A
10:20 AM45 °FScattered clouds.8 mph71%29.95 "HgN/A
Weather by CustomWeather, © 2015

See weather overviewHow to use our weather pages